This demonstration page uses our WeatherBlox Daily Observations layout. Learn more.

40.92945, -100.16068

Hourly Observations for May 14, 2016

Temp ( °F °C ) Dew Point ( °F °C ) Humidity (%) Winds ( mph kmh ) Pressure ( in mb ) Visibility ( mi km ) Precip ( " mm )
12:15 am 00:15 Clear 42 5.8 31 -0.5 64 64 N 13 20 30.39 1029 10 16.0934 N/A
12:35 am 00:35 Clear 42 5.5 31 -0.8 64 64 N 12 19 30.39 1029 10 16.0934 N/A
12:55 am 00:55 Partly Cloudy 41 5.1 31 -0.5 67 67 N 10 17 30.42 1030 10 16.0934 N/A
1:15 am 01:15 Partly Cloudy 40 4.7 30 -0.9 67 67 N 13 20 30.42 1030 10 16.0934 N/A
1:35 am 01:35 Clear 40 4.5 30 -0.9 68 68 N 9 15 30.42 1030 10 16.0934 N/A
1:55 am 01:55 Clear 40 4.2 31 -0.5 72 72 N 8 13 30.42 1030 10 16.0934 N/A
2:15 am 02:15 Clear 40 4.7 29 -1.4 65 65 N 12 19 30.42 1030 10 16.0934 N/A
2:35 am 02:35 Clear 40 4.5 29 -1.5 65 65 N 12 19 30.45 1031 10 16.0934 N/A
2:55 am 02:55 Partly Cloudy 40 4.5 30 -1.3 66 66 N 10 17 30.45 1031 10 16.0934 N/A
3:15 am 03:15 Mostly Cloudy 40 4.3 30 -1 69 69 N 8 13 30.45 1031 10 16.0934 N/A
3:35 am 03:35 Mostly Cloudy 39 4.1 29 -1.4 68 68 NNW 8 13 30.45 1031 10 16.0934 N/A
3:55 am 03:55 Mostly Cloudy 39 4 30 -1 70 70 NW 6 9 30.48 1032 10 16.0934 N/A
4:15 am 04:15 Partly Cloudy 39 4 31 -0.8 71 71 NW 8 13 30.48 1032 10 16.0934 N/A
4:35 am 04:35 Partly Cloudy 39 4 30 -1 70 70 NNW 9 15 30.48 1032 10 16.0934 N/A
4:55 am 04:55 Partly Cloudy 39 3.8 30 -1.1 71 71 NW 8 13 30.48 1032 10 16.0934 N/A
5:15 am 05:15 Partly Cloudy 37 2.9 31 -0.6 78 78 WNW 7 11 30.48 1032 10 16.0934 N/A
5:35 am 05:35 Mostly Cloudy 38 3.3 31 -0.5 76 76 WNW 7 11 30.48 1032 10 16.0934 N/A
5:55 am 05:55 Mostly Cloudy 38 3.1 32 -0.1 80 80 W 7 11 30.48 1032 10 16.0934 N/A
6:15 am 06:15 Partly Cloudy 37 2.7 31 -0.3 81 81 W 6 9 30.48 1032 10 16.0934 N/A
6:35 am 06:35 Sunny 36 2.2 31 -0.5 83 83 NW 6 9 30.48 1032 10 16.0934 N/A
6:55 am 06:55 Sunny 37 2.7 30 -0.9 77 77 NNW 10 17 30.48 1032 10 16.0934 N/A
7:15 am 07:15 Sunny 37 3 30 -1.3 74 74 NW 10 17 30.48 1032 10 16.0934 N/A
7:35 am 07:35 Sunny 38 3.5 29 -1.5 70 70 NW 10 17 30.48 1032 10 16.0934 N/A
7:55 am 07:55 Sunny 40 4.3 30 -1.3 67 67 WNW 10 17 30.45 1031 10 16.0934 N/A
8:15 am 08:15 Sunny 41 5 30 -1.2 65 65 WNW 12 19 30.45 1031 10 16.0934 N/A
8:35 am 08:35 Sunny 42 5.6 30 -1 63 63 NW 10 17 30.45 1031 10 16.0934 N/A
8:55 am 08:55 Sunny 44 6.6 28 -2 55 55 NW 12 19 30.45 1031 10 16.0934 N/A
9:15 am 09:15 Sunny 45 7.4 29 -1.8 52 52 NNW 12 19 30.42 1030 10 16.0934 N/A
9:35 am 09:35 Sunny 47 8.1 28 -2 49 49 N 14 22 30.42 1030 10 16.0934 N/A
9:55 am 09:55 Sunny 47 8.6 26 -3.1 44 44 N 14 22 30.42 1030 10 16.0934 N/A
10:15 am 10:15 Sunny 48 9.1 27 -3 43 43 N 13 20 30.42 1030 10 16.0934 N/A
10:35 am 10:35 Sunny 48 9.1 25 -3.8 40 40 N 12 19 30.39 1029 10 16.0934 N/A
10:55 am 10:55 Sunny 49 9.5 26 -3.2 41 41 N 10 17 30.39 1029 10 16.0934 N/A
11:15 am 11:15 Sunny 50 9.9 27 -2.8 41 41 NNW 13 20 30.39 1029 10 16.0934 N/A
11:35 am 11:35 Sunny 50 10.1 26 -3.2 39 39 NNW 13 20 30.36 1028 10 16.0934 N/A
11:55 am 11:55 Sunny 51 10.6 28 -2.1 41 41 NNW 13 20 30.36 1028 10 16.0934 N/A
12:15 pm 12:15 Sunny 51 10.4 26 -3.1 39 39 NNW 6 9 30.36 1028 10 16.0934 N/A
12:35 pm 12:35 Sunny 52 11.1 29 -1.5 42 42 N 9 15 30.33 1027 10 16.0934 N/A
12:55 pm 12:55 Sunny 52 11.3 28 -2.1 39 39 NNW 7 11 30.33 1027 10 16.0934 N/A
1:15 pm 13:15 Sunny 51 10.8 26 -3.5 37 37 N 3 6 30.33 1027 10 16.0934 N/A
1:35 pm 13:35 Partly Cloudy 53 11.5 30 -1.2 42 42 N 7 11 30.33 1027 10 16.0934 N/A
1:55 pm 13:55 Partly Cloudy 54 12.1 29 -1.8 38 38 NNW 7 11 30.3 1026 10 16.0934 N/A
2:15 pm 14:15 Cloudy 53 11.7 29 -1.4 40 40 NW 7 11 30.3 1026 10 16.0934 N/A
2:35 pm 14:35 Mostly Cloudy 55 12.7 30 -1 39 39 NNW 12 19 30.27 1025 10 16.0934 N/A
2:55 pm 14:55 Cloudy 54 12.1 29 -1.5 39 39 N 5 7 30.27 1025 10 16.0934 N/A
3:15 pm 15:15 Cloudy 54 12.2 30 -1.1 40 40 WNW 7 11 30.27 1025 10 16.0934 N/A
3:35 pm 15:35 Mostly Cloudy 56 13.1 31 -0.6 39 39 NE 3 6 30.24 1024 10 16.0934 N/A
3:55 pm 15:55 Cloudy 55 12.7 29 -1.7 37 37 Calm 30.21 1023 10 16.0934 N/A
4:15 pm 16:15 Partly Cloudy 54 12.3 29 -1.7 38 38 WNW 7 11 30.21 1023 10 16.0934 N/A
4:35 pm 16:35 Partly Cloudy 56 13.6 31 -0.7 38 38 NNW 7 11 30.21 1023 10 16.0934 N/A
4:55 pm 16:55 Partly Cloudy 56 13.5 29 -1.7 35 35 N 8 13 30.18 1022 10 16.0934 N/A
5:15 pm 17:15 Partly Cloudy 56 13.5 29 -1.6 35 35 N 3 6 30.18 1022 10 16.0934 N/A
5:35 pm 17:35 Mostly Cloudy 56 13.1 30 -1.3 37 37 NNW 8 13 30.18 1022 10 16.0934 N/A
5:55 pm 17:55 Mostly Cloudy 57 14.1 33 0.3 39 39 Calm 30.18 1022 10 16.0934 N/A
6:15 pm 18:15 Sunny 57 13.7 31 -0.5 38 38 N 3 6 30.18 1022 10 16.0934 N/A
6:35 pm 18:35 Partly Cloudy 55 13 33 0.3 42 42 Calm 30.18 1022 10 16.0934 N/A
6:55 pm 18:55 Partly Cloudy 56 13.5 30 -1.3 36 36 NNW 5 7 30.18 1022 10 16.0934 N/A
7:15 pm 19:15 Partly Cloudy 56 13.1 29 -1.4 37 37 NNE 5 7 30.18 1022 10 16.0934 N/A
7:35 pm 19:35 Sunny 55 12.6 31 -0.6 40 40 NE 5 7 30.15 1021 10 16.0934 N/A
7:55 pm 19:55 Sunny 53 11.9 31 -0.7 42 42 NNE 7 11 30.15 1021 10 16.0934 N/A
8:15 pm 20:15 Sunny 53 11.4 33 0.4 47 47 NE 5 7 30.21 1023 10 16.0934 N/A
8:35 pm 20:35 Sunny 50 10 32 0.2 51 51 NNE 6 9 30.21 1023 10 16.0934 N/A
8:55 pm 20:55 Clear 50 9.9 31 -0.5 49 49 NE 5 7 30.21 1023 10 16.0934 N/A
9:15 pm 21:15 Clear 49 9.6 32 -0.1 51 51 E 3 6 30.21 1023 10 16.0934 N/A
9:35 pm 21:35 Clear 46 7.9 33 0.6 60 60 ENE 5 7 30.24 1024 10 16.0934 N/A
9:55 pm 21:55 Clear 44 6.9 33 0.5 64 64 E 7 11 30.27 1025 10 16.0934 N/A
10:15 pm 22:15 Clear 43 6.1 33 0.6 68 68 E 6 9 30.27 1025 10 16.0934 N/A
10:35 pm 22:35 Clear 44 6.4 32 0.1 64 64 E 6 9 30.27 1025 10 16.0934 N/A
10:55 pm 22:55 Clear 43 6.2 32 0.1 65 65 E 5 7 30.27 1025 10 16.0934 N/A
11:15 pm 23:15 Clear 43 6.1 33 0.5 68 68 S 6 9 30.27 1025 10 16.0934 N/A
11:35 pm 23:35 Clear 43 6.3 33 0.3 66 66 S 3 6 30.27 1025 10 16.0934 N/A
11:55 pm 23:55 Clear 42 5.6 33 0.4 70 70 S 6 9 30.3 1026 10 16.0934 N/A

Powered by AerisWeather